Location: A�t �Alizem
(31.2076°N, 8.7872°W)
Time: 08:59:32
(UTC+00:00)

N. Korean satellite - Pass Details

Date: 28 September 2021
Orbit: 450 x 495 km, 97.3° (Epoch: 15 October)

Event Time Altitude Azimuth Distance (km) Brightness Sun altitude
Rises 05:18:13 0° 22° (NNE) 2,542 10.6 -15.5°
Reaches altitude 10° 05:20:24 10° 32° (NNE) 1,666 9.8 -15.1°
Maximum altitude 05:23:42 34° 98° (E) 823 8.4 -14.4°
Drops below altitude 10° 05:27:00 10° 165° (SSE) 1,675 9.4 -13.7°
Sets 05:29:12 0° 174° (S) 2,558 10.2 -13.2°
